• In Lithuania
  • List of Countries
  • For 7 days
  • Water Temperature
  • Satellite Maps
  • Weather Map
  • Weather Widgets
  • user-avatar
    Login

    Hourly Weather Mahdia

    Today, 25 September, Tuesday

    Time Temperature Precipitation Wind Pressure Humidity
    00:00 +29°C° 0 mm 5 mps 764 mmHg 58%
    01:00 +29°C° 0 mm 7 mps 764 mmHg 58%
    02:00 +28°C° 0 mm 7 mps 764 mmHg 59%
    03:00 +28°C° 0 mm 7 mps 764 mmHg 59%
    04:00 +28°C° 0 mm 7 mps 764 mmHg 60%
    05:00 +27°C° 0 mm 7 mps 764 mmHg 61%
    06:00 +27°C° 0 mm 7 mps 764 mmHg 62%
    07:00 +27°C° 0 mm 7 mps 764 mmHg 64%
    08:00 +28°C° 0 mm 7 mps 765 mmHg 60%
    09:00 +29°C° 0 mm 7 mps 765 mmHg 56%
    10:00 +30°C° 0 mm 7 mps 765 mmHg 52%
    11:00 +30°C° 0 mm 6 mps 765 mmHg 50%
    12:00 +32°C° 0 mm 6 mps 765 mmHg 47%
    13:00 +33°C° 0 mm 5 mps 765 mmHg 45%
    14:00 +32°C° 0 mm 6 mps 765 mmHg 46%
    15:00 +32°C° 0 mm 6 mps 764 mmHg 47%
    16:00 +32°C° 0 mm 6 mps 764 mmHg 47%
    17:00 +30°C° 0 mm 6 mps 764 mmHg 52%
    18:00 +29°C° 0 mm 6 mps 764 mmHg 56%
    19:00 +29°C° 0 mm 6 mps 765 mmHg 60%
    20:00 +28°C° 0 mm 6 mps 765 mmHg 61%
    21:00 +28°C° 0 mm 6 mps 765 mmHg 61%
    22:00 +28°C° 0 mm 5 mps 766 mmHg 62%
    23:00 +28°C° 0 mm 5 mps 766 mmHg 62%

    Tomorrow, 26 September, Wednesday

    Time Temperature Precipitation Wind Pressure Humidity
    00:00 +28°C° 0 mm 4 mps 766 mmHg 63%
    01:00 +27°C° 0 mm 3 mps 766 mmHg 63%
    02:00 +27°C° 0.2 mm 3 mps 766 mmHg 64%
    03:00 +27°C° 0.2 mm 3 mps 766 mmHg 65%
    04:00 +27°C° 0.2 mm 3 mps 765 mmHg 66%
    05:00 +26°C° 0.3 mm 3 mps 766 mmHg 67%
    06:00 +26°C° 0.3 mm 3 mps 766 mmHg 67%
    07:00 +26°C° 0.3 mm 4 mps 766 mmHg 67%
    08:00 +27°C° 0.6 mm 4 mps 766 mmHg 65%
    09:00 +27°C° 0.6 mm 4 mps 767 mmHg 63%
    10:00 +28°C° 0.6 mm 5 mps 767 mmHg 62%
    11:00 +28°C° 0.9 mm 6 mps 767 mmHg 61%
    12:00 +29°C° 0.9 mm 6 mps 767 mmHg 60%
    13:00 +29°C° 0.9 mm 7 mps 767 mmHg 59%
    14:00 +29°C° 0.7 mm 7 mps 767 mmHg 59%
    15:00 +28°C° 0.7 mm 7 mps 767 mmHg 60%
    16:00 +28°C° 0.7 mm 7 mps 767 mmHg 61%
    17:00 +28°C° 0.2 mm 7 mps 767 mmHg 63%
    18:00 +27°C° 0.2 mm 7 mps 767 mmHg 65%
    19:00 +27°C° 0.2 mm 7 mps 768 mmHg 67%
    20:00 +27°C° 0.2 mm 6 mps 768 mmHg 65%
    21:00 +27°C° 0.2 mm 6 mps 769 mmHg 64%
    22:00 +26°C° 0.2 mm 6 mps 769 mmHg 62%
    23:00 +26°C° 0.1 mm 5 mps 769 mmHg 61%

    Day after tomorrow, 27 September, Thursday

    Time Temperature Precipitation Wind Pressure Humidity
    00:00 +26°C° 0.1 mm 5 mps 769 mmHg 60%
    01:00 +26°C° 0.1 mm 5 mps 769 mmHg 59%
    02:00 +25°C° 0.1 mm 5 mps 769 mmHg 60%
    03:00 +25°C° 0.1 mm 5 mps 769 mmHg 61%
    04:00 +25°C° 0.1 mm 5 mps 769 mmHg 62%
    05:00 +25°C° 0.1 mm 5 mps 769 mmHg 62%
    06:00 +25°C° 0.1 mm 5 mps 769 mmHg 61%
    07:00 +24°C° 0.1 mm 6 mps 769 mmHg 61%
    08:00 +24°C° 0.1 mm 6 mps 769 mmHg 59%
    09:00 +24°C° 0.1 mm 6 mps 769 mmHg 57%
    10:00 +26°C° 0.1 mm 6 mps 769 mmHg 55%
    11:00 +26°C° 0 mm 6 mps 769 mmHg 52%
    12:00 +27°C° 0 mm 5 mps 769 mmHg 48%
    13:00 +27°C° 0 mm 5 mps 768 mmHg 44%
    14:00 +27°C° 0 mm 5 mps 768 mmHg 43%
    15:00 +27°C° 0 mm 6 mps 768 mmHg 41%
    16:00 +27°C° 0 mm 6 mps 767 mmHg 40%
    17:00 +27°C° 0 mm 6 mps 767 mmHg 41%
    18:00 +26°C° 0 mm 6 mps 767 mmHg 42%
    19:00 +24°C° 0 mm 6 mps 767 mmHg 43%
    20:00 +24°C° 0 mm 6 mps 767 mmHg 47%
    21:00 +25°C° 0 mm 5 mps 767 mmHg 50%
    22:00 +25°C° 0 mm 5 mps 767 mmHg 53%
    23:00 +23°C° 0 mm 5 mps 767 mmHg 53%

    28 September, Friday

    Time Temperature Precipitation Wind Pressure Humidity
    00:00 +23°C° 0 mm 5 mps 767 mmHg 54%
    01:00 +23°C° 0 mm 5 mps 766 mmHg 54%
    02:00 +23°C° 0 mm 5 mps 766 mmHg 55%
    03:00 +23°C° 0 mm 6 mps 765 mmHg 56%
    04:00 +23°C° 0 mm 6 mps 765 mmHg 58%
    05:00 +23°C° 0 mm 6 mps 765 mmHg 57%
    06:00 +23°C° 0 mm 6 mps 765 mmHg 56%
    07:00 +23°C° 0 mm 5 mps 765 mmHg 56%
    08:00 +23°C° 0 mm 5 mps 765 mmHg 52%
    09:00 +25°C° 0 mm 5 mps 765 mmHg 49%
    10:00 +26°C° 0 mm 5 mps 765 mmHg 46%
    11:00 +26°C° 0 mm 5 mps 764 mmHg 45%
    12:00 +26°C° 0 mm 4 mps 764 mmHg 44%
    13:00 +27°C° 0 mm 4 mps 764 mmHg 44%
    14:00 +27°C° 0 mm 4 mps 763 mmHg 43%
    15:00 +27°C° 0 mm 4 mps 763 mmHg 41%
    16:00 +27°C° 0 mm 3 mps 762 mmHg 40%
    17:00 +27°C° 0 mm 3 mps 762 mmHg 41%
    18:00 +27°C° 0 mm 3 mps 763 mmHg 42%
    19:00 +26°C° 0 mm 3 mps 763 mmHg 43%
    20:00 +26°C° 0 mm 3 mps 763 mmHg 46%
    21:00 +26°C° 0 mm 2 mps 763 mmHg 48%
    22:00 +25°C° 0 mm 2 mps 763 mmHg 50%
    23:00 +25°C° 0 mm 2 mps 763 mmHg 52%

    29 September, Saturday

    Time Temperature Precipitation Wind Pressure Humidity
    00:00 +25°C° 0 mm 2 mps 763 mmHg 53%
    01:00 +24°C° 0 mm 2 mps 762 mmHg 54%
    02:00 +24°C° 0 mm 3 mps 762 mmHg 55%
    03:00 +24°C° 0 mm 3 mps 762 mmHg 56%
    04:00 +24°C° 0 mm 3 mps 762 mmHg 57%
    05:00 +24°C° 0 mm 3 mps 762 mmHg 56%
    06:00 +24°C° 0 mm 3 mps 762 mmHg 56%
    07:00 +24°C° 0 mm 3 mps 762 mmHg 55%
    08:00 +25°C° 0 mm 3 mps 762 mmHg 51%
    09:00 +26°C° 0 mm 2 mps 763 mmHg 47%
    10:00 +27°C° 0 mm 2 mps 763 mmHg 43%
    11:00 +27°C° 0 mm 2 mps 762 mmHg 40%
    12:00 +28°C° 0 mm 2 mps 762 mmHg 37%
    13:00 +29°C° 0 mm 2 mps 762 mmHg 34%
    14:00 +29°C° 0 mm 2 mps 762 mmHg 34%
    15:00 +29°C° 0 mm 2 mps 761 mmHg 34%
    16:00 +29°C° 0 mm 2 mps 761 mmHg 34%
    17:00 +29°C° 0 mm 3 mps 761 mmHg 37%
    18:00 +28°C° 0 mm 3 mps 762 mmHg 40%
    19:00 +27°C° 0 mm 3 mps 762 mmHg 44%
    20:00 +27°C° 0 mm 3 mps 762 mmHg 46%
    21:00 +27°C° 0 mm 2 mps 762 mmHg 49%
    22:00 +26°C° 0 mm 2 mps 763 mmHg 52%
    23:00 +26°C° 0 mm 2 mps 763 mmHg 52%

    30 September, Sunday

    Time Temperature Precipitation Wind Pressure Humidity
    00:00 +26°C° 0 mm 2 mps 763 mmHg 53%
    01:00 +26°C° 0 mm 1 mps 762 mmHg 54%
    02:00 +25°C° 0 mm 2 mps 762 mmHg 54%
    03:00 +25°C° 0 mm 2 mps 762 mmHg 55%
    04:00 +25°C° 0 mm 2 mps 762 mmHg 55%
    05:00 +25°C° 0 mm 2 mps 762 mmHg 55%
    06:00 +25°C° 0 mm 2 mps 762 mmHg 55%
    07:00 +26°C° 0 mm 2 mps 762 mmHg 55%
    08:00 +27°C° 0 mm 3 mps 762 mmHg 49%
    09:00 +28°C° 0 mm 3 mps 763 mmHg 44%
    10:00 +30°C° 0 mm 3 mps 763 mmHg 38%
    11:00 +31°C° 0 mm 3 mps 762 mmHg 35%
    12:00 +31°C° 0 mm 3 mps 762 mmHg 33%
    13:00 +33°C° 0 mm 3 mps 762 mmHg 30%
    14:00 +33°C° 0 mm 3 mps 761 mmHg 31%
    15:00 +33°C° 0 mm 4 mps 761 mmHg 31%
    16:00 +34°C° 0 mm 4 mps 761 mmHg 32%
    17:00 +33°C° 0 mm 4 mps 761 mmHg 35%
    18:00 +32°C° 0 mm 4 mps 761 mmHg 39%
    19:00 +30°C° 0 mm 4 mps 761 mmHg 42%
    20:00 +30°C° 0 mm 4 mps 761 mmHg 45%
    21:00 +29°C° 0 mm 3 mps 762 mmHg 48%
    22:00 +29°C° 0 mm 3 mps 762 mmHg 51%
    23:00 +28°C° 0 mm 3 mps 762 mmHg 53%
    Show more